Location: Stockholm
(59.3330°N, 18.0500°E)
Time: 00:51:44
(UTC+02:00)

NOAA 18 - Pass Details

Date: 02 April 2023
Orbit: 838 x 860 km, 98.9° (Epoch: 02 June)

Event Time Altitude Azimuth Distance (km) Brightness Sun altitude
Exits shadow 00:49:07 - 258° (WSW) 2,727 7.7 -25.9°
Drops below altitude 10° 00:51:44 10° 284° (WNW) 2,509 7.8 -25.9°
Maximum altitude 00:51:48 10° 285° (WNW) 2,509 7.8 -25.9°
Sets 00:57:45 0° 334° (NNW) 3,452 9.3 -25.9°
